Weather History for KONA - December, 2013

Change the Weather History Date:

Wednesday, December 25, 2013

  Actual Average Record
Temperature  
Mean Temperature 22 °F -  
Max Temperature 30 °F 25 °F 41 °F (2014)
Min Temperature 14 °F 9 °F -25 °F (2000)
Degree Days  
Heating Degree Days 43    
Moisture  
Dew Point 15 °F    
Average Humidity 80    
Maximum Humidity 93    
Minimum Humidity 68    
Precipitation  
Precipitation 0.03 in - - ()
Sea Level Pressure  
Sea Level Pressure 30.11 in    
Wind  
Wind Speed 3 mph (West)    
Max Wind Speed 15 mph    
Max Gust Speed 24 mph    
Visibility 8 miles    
Events Snow    
Averages and records for this station are not official NWS values.
T = Trace of Precipitation, MM = Missing Value Source: NWS Daily Summary

Daily Weather History Graph

Daily Weather History Graph

Search for Another Location

Airport or City:

Trip Planner

Search our weather history database for the weather conditions in past years. The results will help you decide how hot, cold, wet, or windy it might be!

Date:

Astronomy

Dec. 25, 2013 Rise Set
Actual Time 7:40 AM CST 4:33 PM CST
Civil Twilight 7:07 AM CST 5:06 PM CST
Nautical Twilight 6:30 AM CST 5:43 PM CST
Astronomical Twilight 5:55 AM CST 6:18 PM CST
Moon No Moon Rise 11:48 AM CST (12/25)
Length of Visible Light 9h 59m
Length of Day
8h 53m
Waning Gibbous, 48% of the Moon is Illuminated
Dec 25
Waning Gibbous
Jan 1
New
Jan 7
First Quarter
Jan 15
Full
Jan 23
Last Quarter

Hourly Weather History & Observations

Time (CST) Temp. Windchill Dew Point Humidity Pressure Visibility Wind Dir Wind Speed Gust Speed Precip Events Conditions
4:34 AM 14.0 °F - 10.4 °F 86% 30.15 in 10.0 mi Calm Calm - N/A   Overcast
4:36 AM 14.0 °F - 10.4 °F 86% 30.14 in 10.0 mi Calm Calm - N/A   Overcast
4:57 AM 14.0 °F - 10.4 °F 86% 30.14 in 10.0 mi Calm Calm - N/A   Overcast
5:17 AM 14.0 °F - 10.4 °F 86% 30.13 in 10.0 mi Calm Calm - N/A   Overcast
5:36 AM 14.0 °F - 10.4 °F 86% 30.14 in 10.0 mi Calm Calm - N/A   Overcast
5:57 AM 14.0 °F 6.5 °F 10.4 °F 86% 30.13 in 10.0 mi WSW 4.6 mph - N/A   Overcast
6:17 AM 14.0 °F 5.1 °F 10.4 °F 86% 30.13 in 10.0 mi SW 5.8 mph - N/A   Overcast
6:36 AM 14.0 °F - 10.4 °F 86% 30.13 in 10.0 mi Calm Calm - N/A   Overcast
6:57 AM 14.0 °F 6.5 °F 10.4 °F 86% 30.13 in 10.0 mi SSW 4.6 mph - N/A   Overcast
7:16 AM 15.8 °F - 12.2 °F 86% 30.12 in 10.0 mi Calm Calm - N/A   Overcast
7:36 AM 15.8 °F - 12.2 °F 86% 30.12 in 10.0 mi Calm Calm - N/A   Overcast
7:57 AM 17.6 °F - 14.0 °F 86% 30.13 in 10.0 mi Calm Calm - N/A   Overcast
8:16 AM 17.6 °F - 14.0 °F 86% 30.13 in 4.0 mi Calm Calm - N/A   Overcast
8:36 AM 17.6 °F - 14.0 °F 86% 30.13 in 3.0 mi Calm Calm - N/A Snow Light Snow
8:57 AM 17.6 °F - 14.0 °F 86% 30.14 in 2.0 mi Calm Calm - N/A Snow Light Snow
9:16 AM 17.6 °F - 14.0 °F 86% 30.13 in 2.5 mi Calm Calm - N/A Snow Light Snow
9:36 AM 17.6 °F - 14.0 °F 86% 30.13 in 1.0 mi Calm Calm - N/A Snow Light Snow
9:57 AM 19.4 °F - 14.0 °F 80% 30.13 in 1.2 mi Calm Calm - N/A Snow Light Snow
10:17 AM 19.4 °F - 17.6 °F 93% 30.13 in 2.0 mi Calm Calm - N/A Snow Light Snow
10:36 AM 19.4 °F - 15.8 °F 86% 30.13 in 2.5 mi Calm Calm - N/A Snow Light Snow
10:57 AM 21.2 °F - 15.8 °F 80% 30.12 in 3.0 mi Calm Calm - N/A Snow Light Snow
11:17 AM 21.2 °F - 17.6 °F 86% 30.11 in 2.5 mi Calm Calm - N/A Snow Light Snow
11:36 AM 21.2 °F - 17.6 °F 86% 30.10 in 4.0 mi Calm Calm - 0.01 in Snow Light Snow
11:57 AM 21.2 °F - 17.6 °F 86% 30.10 in 4.0 mi Calm Calm - N/A Snow Light Snow
12:16 PM 21.2 °F 16.4 °F 17.6 °F 86% 30.09 in 7.0 mi ESE 3.5 mph - 0.01 in Snow Light Snow
12:37 PM 23.0 °F - 17.6 °F 80% 30.09 in 7.0 mi Calm Calm - 0.01 in   Overcast
12:57 PM 23.0 °F - 19.4 °F 86% 30.08 in 7.0 mi Calm Calm - N/A   Overcast
1:16 PM 24.8 °F 17.9 °F 19.4 °F 80% 30.07 in 4.0 mi SW 5.8 mph - N/A Snow Light Snow
1:37 PM 24.8 °F 20.5 °F 21.2 °F 86% 30.06 in 7.0 mi SW 3.5 mph - N/A   Overcast
1:57 PM 24.8 °F 20.5 °F 21.2 °F 86% 30.06 in 7.0 mi SW 3.5 mph - N/A   Overcast
2:16 PM 26.6 °F - 21.2 °F 80% 30.05 in 7.0 mi Calm Calm - N/A   Overcast
2:37 PM 28.4 °F - 23.0 °F 80% 30.05 in 7.0 mi Calm Calm - 0.01 in   Overcast
2:57 PM 28.4 °F - 23.0 °F 80% 30.05 in 10.0 mi Calm Calm - N/A   Overcast
3:16 PM 30.2 °F 24.3 °F 26.6 °F 86% 30.06 in 10.0 mi West 5.8 mph - N/A   Overcast
3:37 PM 30.2 °F - 24.8 °F 80% 30.05 in 10.0 mi Calm Calm - N/A   Overcast
3:57 PM 30.2 °F - 24.8 °F 80% 30.05 in 10.0 mi Calm Calm - N/A   Overcast
4:17 PM 30.2 °F 26.7 °F 24.8 °F 80% 30.05 in 10.0 mi WNW 3.5 mph - N/A   Overcast
4:36 PM 30.2 °F - 26.6 °F 86% 30.05 in 10.0 mi Calm Calm - N/A   Overcast
4:56 PM 28.4 °F 22.2 °F 23.0 °F 80% 30.05 in 10.0 mi WNW 5.8 mph - N/A   Overcast
5:17 PM 30.2 °F 19.8 °F 21.2 °F 69% 30.07 in 10.0 mi WNW 13.8 mph 21.9 mph N/A   Overcast
5:36 PM 28.4 °F 17.0 °F 19.4 °F 69% 30.08 in 10.0 mi WNW 15.0 mph 23.0 mph N/A   Overcast
5:56 PM 24.8 °F 14.0 °F 17.6 °F 74% 30.09 in 10.0 mi WNW 11.5 mph 19.6 mph N/A   Overcast
6:17 PM 23.0 °F 10.6 °F 14.0 °F 68% 30.10 in 10.0 mi WNW 13.8 mph 20.7 mph N/A   Overcast
6:36 PM 23.0 °F 10.6 °F 14.0 °F 68% 30.11 in 10.0 mi WNW 13.8 mph 24.2 mph N/A   Overcast
6:56 PM 23.0 °F 12.4 °F 14.0 °F 68% 30.11 in 10.0 mi NW 10.4 mph - N/A   Overcast
7:17 PM 21.2 °F 10.9 °F 14.0 °F 74% 30.11 in 10.0 mi NW 9.2 mph - N/A Snow Light Snow
7:36 PM 21.2 °F 10.9 °F 14.0 °F 74% 30.12 in 10.0 mi WNW 9.2 mph - N/A   Overcast
7:56 PM 21.2 °F 10.9 °F 14.0 °F 74% 30.12 in 10.0 mi WNW 9.2 mph - N/A   Overcast
8:17 PM 21.2 °F 11.7 °F 12.2 °F 68% 30.12 in 10.0 mi WNW 8.1 mph 18.4 mph N/A   Overcast
8:36 PM 19.4 °F 7.2 °F 12.2 °F 74% 30.12 in 10.0 mi WNW 11.5 mph - N/A   Overcast
8:56 PM 19.4 °F 7.9 °F 12.2 °F 74% 30.13 in 10.0 mi West 10.4 mph 18.4 mph N/A   Overcast
9:16 PM 19.4 °F 6.0 °F 12.2 °F 74% 30.14 in 10.0 mi WNW 13.8 mph 23.0 mph N/A   Overcast
9:37 PM 17.6 °F 5.7 °F 10.4 °F 73% 30.15 in 10.0 mi WNW 10.4 mph - N/A   Overcast
9:57 PM 17.6 °F 5.7 °F 10.4 °F 73% 30.15 in 10.0 mi WNW 10.4 mph - N/A Snow Light Snow
10:16 PM 17.6 °F 7.3 °F 10.4 °F 73% 30.14 in 10.0 mi WNW 8.1 mph - N/A   Overcast
10:37 PM 17.6 °F 7.3 °F 10.4 °F 73% 30.15 in 10.0 mi NW 8.1 mph - N/A   Mostly Cloudy
10:57 PM 17.6 °F 9.3 °F 10.4 °F 73% 30.15 in 10.0 mi WNW 5.8 mph - N/A   Mostly Cloudy
11:16 PM 15.8 °F 8.6 °F 10.4 °F 79% 30.14 in 10.0 mi WNW 4.6 mph - N/A   Mostly Cloudy
11:37 PM 15.8 °F 6.1 °F 10.4 °F 79% 30.14 in 10.0 mi West 6.9 mph - N/A   Mostly Cloudy
11:57 PM 14.0 °F 5.1 °F 8.6 °F 79% 30.14 in 10.0 mi WNW 5.8 mph - N/A   Scattered Clouds